{"data":{"norad_id":62091,"intl_designator":"2024-220D","name":"STARLINK-11389 [DTC]","alt_names":[],"object_type":"PAYLOAD","status":"ACTIVE","operator":null,"country":"US","launch_date":"2024-11-25","launch_site_code":"AFETR","launch_vehicle":null,"mission":null,"orbit_class":"UNKNOWN","rcs_meters":null,"size_class":null,"mass_kg":null,"dimensions":null,"purposes":["comms"],"wikipedia_slug":null,"has_3d_model":false,"image_url":null,"decayed_at":null,"tle_current":{"epoch":"2026-05-25T03:08:02.518080Z","epoch_age_seconds":66861,"freshness":"FRESH","line1":"1 62091U 24220D   26145.13058470  .00185481  00000+0  14136-2 0  9997","line2":"2 62091  43.0012 302.4644 0001376 300.5161  59.5571 15.70896481 86977","mean_motion":15.70896481,"eccentricity":0.0001376,"inclination_deg":43.0012,"raan_deg":302.4644,"arg_perigee_deg":300.5161,"mean_anomaly_deg":59.5571,"bstar":0.0014136,"rev_number":8697,"period_min":91.66740249385,"perigee_km":355.40696997776,"apogee_km":357.260296296,"semimajor_km":6734.4706331369,"source":"CELESTRAK","updated_at":"2026-05-25T13:38:19.557436Z"}}}